EW5123 Weather Reports


Display with metric or nautical units.
time (UTC)temp
F
wind
direction
speed
MPH
gust
MPH
rain 1hr
in
rain 24hr
in
rain mn
in
humidity
%
barometer
mb
20260902060656 67 210 0.0 2.0 0.00 0.00 0.00 53 985.0
20260902060155 67 211 0.0 2.0 0.00 0.00 0.00 53 985.0
20260902055653 67 207 0.0 1.0 0.00 0.00 0.00 53 985.0
20260902055154 67 209 0.0 3.0 0.00 0.00 0.00 52 985.1
20260902054651 67 190 0.0 3.0 0.00 0.00 0.00 53 985.1
20260902054150 67 207 1.0 6.0 0.00 0.00 0.00 55 985.1
20260902053651 67 233 3.0 6.0 0.00 0.00 0.00 56 985.1
20260902053149 67 210 3.0 7.0 0.00 0.00 0.00 57 985.2
20260902052648 68 214 3.0 7.0 0.00 0.00 0.00 57 985.2
20260902052148 68 217 3.0 8.0 0.00 0.00 0.00 57 985.2
20260902051648 68 213 4.0 8.0 0.00 0.00 0.00 57 985.3
20260902051148 68 214 5.0 10.0 0.00 0.00 0.00 56 985.2
20260902050648 68 207 7.0 12.0 0.00 0.00 0.00 56 985.2
20260902050148 68 189 7.0 14.0 0.00 0.00 0.00 56 985.1
20260902045648 68 195 7.0 14.0 0.00 0.00 0.00 57 985.1
20260902045150 68 205 5.0 11.0 0.00 0.00 0.00 57 984.8
20260902045146 68 206 6.0 14.0 0.00 0.00 0.00 57 985.0
20260902044145 68 147 6.0 15.0 0.00 0.00 0.00 57 984.8
20260902043646 68 151 6.0 15.0 0.00 0.00 0.00 57 984.8
20260902043146 68 181 5.0 14.0 0.00 0.00 0.00 57 985.0
20260902042645 68 164 5.0 11.0 0.00 0.00 0.00 57 985.0
20260902042149 68 124 6.0 12.0 0.00 0.00 0.00 56 985.1
20260902042145 68 138 6.0 12.0 0.00 0.00 0.00 56 985.1
20260902041145 68 150 5.0 11.0 0.00 0.00 0.00 56 985.1
20260902040650 68 210 5.0 15.0 0.00 0.00 0.00 55 985.1
20260902040646 68 181 5.0 11.0 0.00 0.00 0.00 55 985.0
20260902035649 68 172 5.0 13.0 0.00 0.00 0.00 55 985.0
20260902035644 68 55 5.0 15.0 0.00 0.00 0.00 55 985.0
20260902035249 68 189 4.0 9.0 0.00 0.00 0.00 55 985.1
20260902034144 68 199 4.0 9.0 0.00 0.00 0.00 54 985.0
20260902033644 68 170 3.0 6.0 0.00 0.00 0.00 54 985.0
20260902033143 68 201 3.0 8.0 0.00 0.00 0.00 53 985.0
20260902032642 68 130 3.0 8.0 0.00 0.00 0.00 54 985.0
20260902032140 68 164 2.0 8.0 0.00 0.00 0.00 54 985.0
20260902031639 67 188 1.0 6.0 0.00 0.00 0.00 55 985.0
20260902031140 67 129 0.0 3.0 0.00 0.00 0.00 56 984.8
20260902030640 67 120 0.0 2.0 0.00 0.00 0.00 55 984.8
20260902030139 68 129 0.0 1.0 0.00 0.00 0.00 55 984.7
20260902025639 68 129 0.0 1.0 0.00 0.00 0.00 54 984.7
20260902025140 68 145 0.0 1.0 0.00 0.00 0.00 54 984.7
20260902024639 69 159 0.0 2.0 0.00 0.00 0.00 54 984.6
20260902024140 69 167 0.0 2.0 0.00 0.00 0.00 53 984.5
20260902023645 71 188 0.0 2.0 0.00 0.00 0.00 48 984.3
20260902023639 69 176 0.0 0.0 0.00 0.00 0.00 51 984.4
20260902023139 70 194 0.0 0.0 0.00 0.00 0.00 49 984.3
20260902022139 71 203 0.0 2.0 0.00 0.00 0.00 48 984.3
20260902021639 71 190 1.0 4.0 0.00 0.00 0.00 47 984.3
20260902021139 72 170 1.0 4.0 0.00 0.00 0.00 46 984.1
20260902020640 73 208 0.0 3.0 0.00 0.00 0.00 45 984.0
20260902020140 73 220 0.0 1.0 0.00 0.00 0.00 45 983.9
20260902015643 74 12 0.0 0.0 0.00 0.00 0.00 44 983.8
20260902015639 73 245 0.0 0.0 0.00 0.00 0.00 44 983.9
20260902014639 74 12 0.0 1.0 0.00 0.00 0.00 43 983.9
20260902014139 74 8 0.0 1.0 0.00 0.00 0.00 43 983.8
20260902013643 75 311 0.0 3.0 0.00 0.00 0.00 41 983.8
20260902013639 75 4 0.0 2.0 0.00 0.00 0.00 42 983.7
20260902012640 75 321 0.0 3.0 0.00 0.00 0.00 41 983.7
20260902012137 76 357 0.0 2.0 0.00 0.00 0.00 40 983.7
20260902011637 76 356 1.0 5.0 0.00 0.00 0.00 40 983.7
20260902011137 76 282 1.0 6.0 0.00 0.00 0.00 39 983.7
20260902010635 76 276 1.0 6.0 0.00 0.00 0.00 38 983.7
20260902010135 77 310 0.0 3.0 0.00 0.00 0.00 38 983.8
20260902005639 78 338 1.0 4.0 0.00 0.00 0.00 36 983.7
20260902005635 77 273 0.0 4.0 0.00 0.00 0.00 38 983.8
20260902004636 78 316 1.0 5.0 0.00 0.00 0.00 36 983.5
20260902004135 79 319 0.0 5.0 0.00 0.00 0.00 35 983.5
20260902003635 79 237 1.0 7.0 0.00 0.00 0.00 34 983.5
20260902003142 80 342 1.0 7.0 0.00 0.00 0.00 32 983.5
20260902003136 80 330 2.0 7.0 0.00 0.00 0.00 33 983.5
20260902002637 80 2 1.0 7.0 0.00 0.00 0.00 33 983.4
20260902001633 80 14 2.0 9.0 0.00 0.00 0.00 31 983.5
20260902001138 81 307 2.0 9.0 0.00 0.00 0.00 31 983.5
20260902000633 81 330 1.0 6.0 0.00 0.00 0.00 29 983.4
20260902000133 82 309 1.0 6.0 0.00 0.00 0.00 29 983.4
20260901235633 82 304 1.0 6.0 0.00 0.00 0.00 29 983.4
20260901235134 81 317 0.0 2.0 0.00 0.00 0.00 29 983.4
20260901234637 82 145 0.0 1.0 0.00 0.00 0.00 27 983.4
20260901234633 81 170 0.0 1.0 0.00 0.00 0.00 27 983.4
20260901233633 82 145 0.0 1.0 0.00 0.00 0.00 27 983.4
20260901233133 82 148 0.0 0.0 0.00 0.00 0.00 26 983.3
20260901232633 82 148 0.0 1.0 0.00 0.00 0.00 26 983.4
20260901232133 82 148 0.0 1.0 0.00 0.00 0.00 26 983.4
20260901231633 82 195 0.0 1.0 0.00 0.00 0.00 26 983.4
20260901231133 83 115 0.0 1.0 0.00 0.00 0.00 25 983.4
20260901230631 83 146 0.0 3.0 0.00 0.00 0.00 25 983.4
20260901230131 83 137 1.0 5.0 0.00 0.00 0.00 25 983.4
20260901225631 84 185 1.0 5.0 0.00 0.00 0.00 24 983.4
20260901225129 85 184 0.0 1.0 0.00 0.00 0.00 25 983.4
20260901224629 86 141 0.0 3.0 0.00 0.00 0.00 24 983.4
20260901224129 86 285 0.0 3.0 0.00 0.00 0.00 24 983.4
20260901223634 86 236 0.0 3.0 0.00 0.00 0.00 25 983.5
20260901223629 87 7 0.0 2.0 0.00 0.00 0.00 23 983.5
20260901222629 85 334 0.0 3.0 0.00 0.00 0.00 26 983.5
20260901222128 86 337 0.0 1.0 0.00 0.00 0.00 24 983.7
20260901221627 86 246 0.0 1.0 0.00 0.00 0.00 26 983.8
20260901221131 85 219 0.0 2.0 0.00 0.00 0.00 23 983.8
20260901221127 85 156 0.0 0.0 0.00 0.00 0.00 25 983.8
20260901220127 84 36 0.0 2.0 0.00 0.00 0.00 23 983.9
20260901215627 85 131 0.0 1.0 0.00 0.00 0.00 24 983.9
20260901215127 84 158 0.0 1.0 0.00 0.00 0.00 24 984.0
20260901214627 83 117 0.0 1.0 0.00 0.00 0.00 25 984.0
20260901214127 82 1 0.0 1.0 0.00 0.00 0.00 25 984.1
20260901213627 81 141 0.0 2.0 0.00 0.00 0.00 27 984.1
20260901213125 81 326 0.0 2.0 0.00 0.00 0.00 26 984.1
20260901212630 81 210 1.0 5.0 0.00 0.00 0.00 27 984.3
20260901212625 80 290 1.0 3.0 0.00 0.00 0.00 27 984.3
20260901212125 81 248 1.0 3.0 0.00 0.00 0.00 26 984.3
20260901211130 81 193 1.0 5.0 0.00 0.00 0.00 26 984.4
20260901210623 82 245 0.0 3.0 0.00 0.00 0.00 25 984.5
20260901210123 82 213 0.0 4.0 0.00 0.00 0.00 26 984.5
20260901205632 83 102 1.0 7.0 0.00 0.00 0.00 25 984.6
20260901205623 83 297 0.0 4.0 0.00 0.00 0.00 25 984.5
20260901204628 85 169 2.0 6.0 0.00 0.00 0.00 24 984.6
20260901204624 83 124 2.0 7.0 0.00 0.00 0.00 26 984.6
20260901204228 86 217 0.0 4.0 0.00 0.00 0.00 27 984.7
20260901203622 86 159 1.0 5.0 0.00 0.00 0.00 24 984.7
20260901202621 85 206 1.0 5.0 0.00 0.00 0.00 26 984.8
20260901202121 86 139 1.0 5.0 0.00 0.00 0.00 26 984.8
20260901201621 86 203 0.0 2.0 0.00 0.00 0.00 25 985.0
20260901201121 85 114 0.0 2.0 0.00 0.00 0.00 26 985.0
20260901200621 85 129 0.0 1.0 0.00 0.00 0.00 27 985.0
20260901200120 84 131 0.0 3.0 0.00 0.00 0.00 28 985.1
20260901195622 83 116 1.0 3.0 0.00 0.00 0.00 28 985.2
20260901195618 82 122 2.0 5.0 0.00 0.00 0.00 28 985.3
20260901195223 81 243 2.0 8.0 0.00 0.00 0.00 30 985.3
20260901194116 81 238 2.0 8.0 0.00 0.00 0.00 29 985.3
20260901193616 80 262 1.0 5.0 0.00 0.00 0.00 30 985.6
20260901193121 79 236 1.0 6.0 0.00 0.00 0.00 30 985.6
20260901193116 80 229 1.0 3.0 0.00 0.00 0.00 29 985.6
20260901192115 79 192 1.0 6.0 0.00 0.00 0.00 30 985.7
20260901191615 80 333 2.0 6.0 0.00 0.00 0.00 29 985.8
20260901191114 80 191 2.0 6.0 0.00 0.00 0.00 28 985.8
20260901190614 81 309 4.0 11.0 0.00 0.00 0.00 27 985.9
20260901190118 81 182 2.0 11.0 0.00 0.00 0.00 30 985.8
20260901190114 81 256 4.0 11.0 0.00 0.00 0.00 28 985.8
20260901185114 80 156 1.0 8.0 0.00 0.00 0.00 32 985.9
20260901184623 79 224 2.0 7.0 0.00 0.00 0.00 31 985.9
20260901184619 80 234 1.0 8.0 0.00 0.00 0.00 30 986.0
20260901183616 79 212 4.0 9.0 0.00 0.00 0.00 31 986.1
20260901183115 79 219 4.0 9.0 0.00 0.00 0.00 30 986.0
20260901182615 79 208 4.0 12.0 0.00 0.00 0.00 29 986.1
20260901182118 79 252 3.0 9.0 0.00 0.00 0.00 32 986.3
20260901182114 79 221 3.0 12.0 0.00 0.00 0.00 28 986.0
20260901181115 79 242 4.0 9.0 0.00 0.00 0.00 33 986.4
20260901180614 78 212 5.0 12.0 0.00 0.00 0.00 33 986.4
20260901180114 78 201 5.0 15.0 0.00 0.00 0.00 30 986.5
20260901175619 78 198 2.0 9.0 0.00 0.00 0.00 38 986.6
20260901175615 78 174 3.0 15.0 0.00 0.00 0.00 33 986.5
20260901174618 76 222 4.0 9.0 0.00 0.00 0.00 37 986.9
20260901174614 77 205 3.0 9.0 0.00 0.00 0.00 38 986.7
20260901173619 76 200 4.0 10.0 0.00 0.00 0.00 36 986.7
20260901173615 76 167 4.0 10.0 0.00 0.00 0.00 37 986.7
20260901172612 76 196 4.0 11.0 0.00 0.00 0.00 37 986.9
20260901172113 76 167 4.0 11.0 0.00 0.00 0.00 36 987.0
20260901171612 75 210 4.0 9.0 0.00 0.00 0.00 39 987.0
20260901171111 74 215 4.0 10.0 0.00 0.00 0.00 40 987.1
20260901170610 73 180 3.0 10.0 0.00 0.00 0.00 44 987.2
20260901170109 72 214 3.0 7.0 0.00 0.00 0.00 46 987.2
20260901165613 70 251 2.0 5.0 0.00 0.00 0.00 51 987.3
20260901165609 71 224 2.0 7.0 0.00 0.00 0.00 50 987.3
20260901164606 69 212 1.0 9.0 0.00 0.00 0.00 51 987.3
20260901164106 69 229 1.0 9.0 0.00 0.00 0.00 50 987.4
20260901163607 69 245 2.0 6.0 0.00 0.00 0.00 50 987.3
20260901163109 69 333 2.0 6.0 0.00 0.00 0.00 51 987.3
20260901163105 69 243 1.0 5.0 0.00 0.00 0.00 52 987.3
20260901162104 69 208 1.0 5.0 0.00 0.00 0.00 52 987.3
20260901161607 69 304 0.0 5.0 0.00 0.00 0.00 52 987.3
20260901161603 68 311 0.0 3.0 0.00 0.00 0.00 54 987.3
20260901160601 68 308 0.0 3.0 0.00 0.00 0.00 53 987.3
20260901160100 67 203 1.0 5.0 0.00 0.00 0.00 54 987.2
20260901155600 67 165 2.0 6.0 0.00 0.00 0.00 54 987.2
20260901155104 67 217 1.0 8.0 0.00 0.00 0.00 54 987.2
20260901155100 67 191 2.0 8.0 0.00 0.00 0.00 55 987.2
20260901154101 67 290 1.0 3.0 0.00 0.00 0.00 54 987.1
20260901153601 67 214 1.0 7.0 0.00 0.00 0.00 55 987.2
20260901153100 67 252 2.0 9.0 0.00 0.00 0.00 55 987.1
20260901152605 66 316 1.0 8.0 0.00 0.00 0.00 55 987.1
20260901152559 66 222 2.0 9.0 0.00 0.00 0.00 55 987.1
20260901151558 66 245 1.0 5.0 0.00 0.00 0.00 56 987.1
20260901151058 66 221 2.0 8.0 0.00 0.00 0.00 55 987.0
20260901150558 66 318 2.0 8.0 0.00 0.00 0.00 56 986.9
20260901150058 66 242 1.0 5.0 0.00 0.00 0.00 56 986.9
20260901145103 66 290 3.0 7.0 0.00 0.00 0.00 55 986.9
20260901145058 66 303 1.0 5.0 0.00 0.00 0.00 56 986.9
20260901144559 66 201 2.0 7.0 0.00 0.00 0.00 55 986.9
20260901143558 66 226 4.0 10.0 0.00 0.00 0.00 56 986.6
20260901143100 65 242 6.0 12.0 0.00 0.00 0.00 57 986.5
20260901143056 65 231 5.0 12.0 0.00 0.00 0.00 56 986.6
20260901142101 65 198 6.0 13.0 0.00 0.00 0.00 57 986.4
20260901142056 66 198 7.0 13.0 0.00 0.00 0.00 56 986.5
20260901141056 65 198 6.0 10.0 0.00 0.00 0.00 58 986.4
20260901140556 65 221 6.0 10.0 0.00 0.00 0.00 59 986.4
20260901140055 65 209 6.0 10.0 0.00 0.00 0.00 59 986.4
20260901135556 65 175 6.0 9.0 0.00 0.00 0.00 59 986.4
20260901135057 65 195 6.0 11.0 0.00 0.00 0.00 59 986.5
20260901134555 65 196 5.0 11.0 0.00 0.00 0.00 59 986.5
20260901134054 65 198 5.0 10.0 0.00 0.00 0.00 60 986.6
20260901133554 65 203 5.0 10.0 0.00 0.00 0.00 60 986.6
20260901133053 65 205 5.0 10.0 0.00 0.00 0.00 60 986.6
20260901132554 65 197 5.0 9.0 0.00 0.00 0.00 60 986.5
20260901132054 64 204 5.0 9.0 0.00 0.00 0.00 60 986.6
20260901131553 64 217 4.0 9.0 0.00 0.00 0.00 61 986.5
20260901131054 64 213 4.0 11.0 0.00 0.00 0.00 62 986.5
20260901130554 64 205 3.0 11.0 0.00 0.00 0.00 62 986.4
20260901130058 62 178 2.0 5.0 0.00 0.00 0.00 66 986.0
20260901130054 63 212 2.0 6.0 0.00 0.00 0.00 64 986.3
20260901125553 62 172 1.0 5.0 0.00 0.00 0.00 68 985.9
20260901124552 62 190 1.0 5.0 0.00 0.00 0.00 69 985.9
20260901124052 62 216 2.0 5.0 0.00 0.00 0.00 70 985.8
20260901123552 62 193 2.0 5.0 0.00 0.00 0.00 70 985.8
20260901123050 62 183 2.0 5.0 0.00 0.00 0.00 69 985.8
20260901122550 62 212 2.0 5.0 0.00 0.00 0.00 69 985.7
20260901122050 62 213 2.0 5.0 0.00 0.00 0.00 70 985.6
20260901121551 62 189 2.0 5.0 0.00 0.00 0.00 71 985.6
20260901121051 62 202 3.0 7.0 0.00 0.00 0.00 71 985.4
20260901120549 61 196 4.0 7.0 0.00 0.00 0.00 72 985.4
20260901120050 61 205 3.0 8.0 0.00 0.00 0.00 73 985.4
20260901115549 60 198 1.0 8.0 0.00 0.00 0.00 75 985.4
20260901115053 60 219 1.0 4.0 0.00 0.00 0.00 77 985.4
20260901115049 60 155 2.0 5.0 0.00 0.00 0.00 77 985.4
20260901114653 60 200 2.0 6.0 0.00 0.00 0.00 78 985.6
20260901114047 60 169 2.0 6.0 0.00 0.00 0.00 78 985.6
20260901113047 59 136 2.0 6.0 0.00 0.00 0.00 78 985.6
20260901112547 59 189 2.0 6.0 0.00 0.00 0.00 78 985.6
20260901112048 59 142 2.0 5.0 0.00 0.00 0.00 78 985.6
20260901111548 59 183 1.0 6.0 0.00 0.00 0.00 79 985.4
20260901111048 59 160 2.0 6.0 0.00 0.00 0.00 79 985.6
20260901110551 58 186 1.0 6.0 0.00 0.00 0.00 80 985.7
20260901110547 59 143 2.0 6.0 0.00 0.00 0.00 79 985.7
20260901105547 58 187 0.0 3.0 0.00 0.00 0.00 81 985.8
20260901105047 58 214 0.0 3.0 0.00 0.00 0.00 81 985.9
20260901104552 58 208 0.0 2.0 0.00 0.00 0.00 82 985.9
20260901104548 58 153 0.0 1.0 0.00 0.00 0.00 81 985.9
20260901103547 57 210 0.0 2.0 0.00 0.00 0.00 83 985.9
20260901103051 56 147 0.0 0.0 0.00 0.00 0.00 85 986.0
20260901103047 56 150 0.0 0.0 0.00 0.00 0.00 84 986.0
20260901102654 56 138 0.0 0.0 0.00 0.00 0.00 85 986.0
20260901101548 56 138 0.0 0.0 0.00 0.00 0.00 84 986.3
20260901101047 55 212 0.0 0.0 0.00 0.00 0.00 85 986.1
20260901100551 55 212 0.0 0.0 0.00 0.00 0.00 85 986.3
20260901100547 55 212 0.0 0.0 0.00 0.00 0.00 85 986.3
20260901095551 56 158 0.0 0.0 0.00 0.00 0.00 85 986.4
20260901095547 55 212 0.0 0.0 0.00 0.00 0.00 85 986.3
20260901094547 56 157 0.0 0.0 0.00 0.00 0.00 84 986.3
20260901094048 55 157 0.0 0.0 0.00 0.00 0.00 84 986.4
20260901093549 55 157 0.0 0.0 0.00 0.00 0.00 84 986.5
20260901093048 55 157 0.0 0.0 0.00 0.00 0.00 84 986.6
20260901092547 55 157 0.0 0.0 0.00 0.00 0.00 85 986.7
20260901092048 56 157 0.0 0.0 0.00 0.00 0.00 84 986.7
20260901091547 56 158 0.0 0.0 0.00 0.00 0.00 84 986.9
20260901091048 56 196 0.0 0.0 0.00 0.00 0.00 84 986.7
20260901090548 56 196 0.0 0.0 0.00 0.00 0.00 84 986.9
20260901090047 56 196 0.0 0.0 0.00 0.00 0.00 83 986.9
20260901085547 56 196 0.0 0.0 0.00 0.00 0.00 83 987.0
20260901085052 57 196 0.0 0.0 0.00 0.00 0.00 82 987.0
20260901085048 57 196 0.0 0.0 0.00 0.00 0.00 82 986.9
20260901084048 57 196 0.0 0.0 0.00 0.00 0.00 82 987.0
20260901083551 56 196 0.0 0.0 0.00 0.00 0.00 83 987.1
20260901083547 57 196 0.0 0.0 0.00 0.00 0.00 82 987.0
20260901082547 56 196 0.0 0.0 0.00 0.00 0.00 83 987.1
20260901082047 57 196 0.0 0.0 0.00 0.00 0.00 82 987.1
20260901081045 58 186 0.0 0.0 0.00 0.00 0.00 81 987.2
20260901080547 58 186 0.0 0.0 0.00 0.00 0.00 81 987.3
20260901080049 58 194 0.0 0.0 0.00 0.00 0.00 81 987.4
20260901080045 58 194 0.0 0.0 0.00 0.00 0.00 80 987.3
20260901075045 58 223 0.0 0.0 0.00 0.00 0.00 81 987.6
20260901074545 57 223 0.0 0.0 0.00 0.00 0.00 82 987.6
20260901074045 57 239 0.0 0.0 0.00 0.00 0.00 83 987.7
20260901073546 57 205 0.0 0.0 0.00 0.00 0.00 83 987.7
20260901073046 56 167 0.0 0.0 0.00 0.00 0.00 84 987.6
20260901072545 57 167 0.0 0.0 0.00 0.00 0.00 84 987.4
20260901072043 57 208 0.0 0.0 0.00 0.00 0.00 83 987.4
20260901071548 57 208 0.0 0.0 0.00 0.00 0.00 83 987.6
20260901071543 57 208 0.0 0.0 0.00 0.00 0.00 83 987.3
20260901071153 57 208 0.0 0.0 0.00 0.00 0.00 81 987.4
20260901071149 57 208 0.0 0.0 0.00 0.00 0.00 82 987.4
20260901070148 57 208 0.0 0.0 0.00 0.00 0.00 82 987.4
20260901065648 57 208 0.0 0.0 0.00 0.00 0.00 82 987.3
20260901065043 57 208 0.0 0.0 0.00 0.00 0.00 82 987.3
20260901064043 57 208 0.0 0.0 0.00 0.00 0.00 82 987.2
20260901063545 57 208 0.0 0.0 0.00 0.00 0.00 82 987.2
20260901063541 57 162 0.0 0.0 0.00 0.00 0.00 81 987.3
20260901062541 57 203 0.0 0.0 0.00 0.00 0.00 81 987.2
20260901062042 57 203 0.0 0.0 0.00 0.00 0.00 82 987.2
20260901061541 58 203 0.0 0.0 0.00 0.00 0.00 82 987.3